Location: Finkenwalde
(53.3770°N, 14.6418°E)
Time: 10:35:40
(UTC+00:00)

Cosmos-2242 - Pass Details

Date: 05 February 2023
Orbit: 587 x 612 km, 82.5° (Epoch: 19 March)

Event Time Altitude Azimuth Distance (km) Brightness Sun altitude
Rises 17:30:43 0° 355° (N) 2,835 6.4 -14.9°
Reaches altitude 10° 17:33:11 10° 7° (N) 1,928 5.5 -15.3°
Maximum altitude 17:36:53 28° 68° (ENE) 1,115 3.8 -15.8°
Enters shadow 17:36:55 28° 68° (ENE) 1,115 3.8 -15.8°
